Location: Czu?�w
(50.1404°N, 18.9919°E)
Time: 12:11:38
(UTC+00:00)

Cosmos 1825 - Pass Details

Date: 27 October 2020
Orbit: 502 x 508 km, 82.5° (Epoch: 24 November)

Event Time Altitude Azimuth Distance (km) Brightness Sun altitude
Rises 17:45:42 0° 348° (NNW) 2,628 6.0 -22.5°
Reaches altitude 10° 17:47:51 10° 347° (NNW) 1,736 5.1 -22.8°
Enters shadow 17:51:23 71° 301° (WNW) 543 2.3 -23.4°
